EW7645 Weather Reports


time (UTC)temp
C
wind
direction
speed
KPH
gust
KPH
rain 1hr
cm
rain 24hr
cm
rain mn
cm
humidity
%
barometer
mb
20260505122016 3 0 6.4 14.5 0.23 0.56 0.23 91 1011.4
20260505121016 3 23 6.4 17.7 0.20 0.53 0.20 91 1011.8
20260505120016 3 315 9.7 22.5 0.18 0.51 0.18 90 1011.6
20260505115016 3 338 9.7 20.9 0.15 0.48 0.15 89 1011.4
20260505114017 4 338 9.7 22.5 0.10 0.43 0.10 89 1011.7
20260505113037 4 315 11.3 24.1 0.05 0.38 0.05 88 1011.7
20260505112017 5 338 9.7 25.7 0.00 0.33 0.00 87 1011.8
20260505111016 5 0 14.5 25.7 0.00 0.33 0.00 87 1011.7
20260505102017 6 315 9.7 20.9 0.00 0.33 0.00 90 1011.5
20260505101016 6 0 9.7 19.3 0.00 0.33 0.00 89 1011.8
20260505100016 6 0 11.3 25.7 0.00 0.33 0.00 89 1012.0
20260505095057 6 315 9.7 20.9 0.00 0.33 0.00 88 1012.1
20260505094016 7 315 8.0 19.3 0.00 0.33 0.00 88 1012.3
20260505093017 7 315 9.7 20.9 0.00 0.33 0.00 88 1012.5
20260505092016 8 315 11.3 22.5 0.00 0.33 0.00 90 1012.9
20260505091016 8 315 4.8 11.3 0.00 0.33 0.00 92 1012.6
20260505090016 8 315 3.2 8.0 0.00 0.33 0.00 92 1012.6
20260505085017 8 315 3.2 6.4 0.00 0.33 0.00 92 1012.6
20260505084056 8 338 1.6 8.0 0.00 0.33 0.00 91 1012.7
20260505083016 8 315 1.6 3.2 0.00 0.33 0.00 91 1012.6
20260505082036 8 0.0 1.6 0.00 0.33 0.00 91 1012.6
20260505081017 8 0.0 1.6 0.00 0.33 0.00 91 1013.1
20260505080017 8 248 1.6 3.2 0.00 0.33 0.00 91 1013.2
20260505075017 8 0.0 1.6 0.00 0.33 0.00 91 1013.1
20260505074017 8 0.0 0.0 0.00 0.33 0.00 91 1012.2
20260505073016 8 0.0 0.0 0.00 0.33 0.00 91 1012.5
20260505072016 8 0.0 0.0 0.00 0.33 0.00 91 1012.5
20260505071017 8 0.0 0.0 0.00 0.33 0.00 90 1011.9
20260505070036 8 0.0 1.6 0.00 0.33 0.00 90 1011.9
20260505065017 8 0.0 0.0 0.00 0.33 0.00 90 1011.9
20260505064016 8 0.0 0.0 0.00 0.33 0.00 90 1012.3
20260505063016 8 0.0 1.6 0.00 0.33 0.00 89 1012.4
20260505062017 8 180 1.6 4.8 0.00 0.33 0.00 89 1012.4
20260505061017 8 0.0 1.6 0.00 0.33 0.00 89 1013.3
20260505060017 8 203 1.6 4.8 0.00 0.33 0.00 88 1013.4
20260505055017 8 225 1.6 3.2 0.00 0.33 0.33 88 1013.3
20260505054016 8 0.0 0.0 0.03 0.33 0.33 87 1013.8
20260505053016 8 0.0 1.6 0.03 0.33 0.33 87 1013.9
20260505052017 8 0.0 1.6 0.05 0.33 0.33 87 1013.9
20260505051056 8 0.0 0.0 0.08 0.33 0.33 87 1013.8
20260505041017 9 270 1.6 4.8 0.25 0.25 0.25 84 1012.4
20260505040017 10 293 1.6 6.4 0.23 0.23 0.23 83 1012.6
20260505035016 10 315 6.4 12.9 0.20 0.20 0.20 81 1012.4
20260505034017 10 315 6.4 17.7 0.15 0.15 0.15 79 1011.9
20260505033016 11 315 4.8 11.3 0.10 0.10 0.10 76 1012.0
20260505032016 11 315 4.8 12.9 0.05 0.05 0.05 73 1012.1
20260505031017 12 338 6.4 17.7 0.00 0.00 0.00 66 1011.0
20260505030037 12 315 3.2 4.8 0.00 0.00 0.00 61 1010.6
20260505025017 12 0.0 3.2 0.00 0.00 0.00 59 1010.1
20260505024057 12 0.0 0.0 0.00 0.00 0.00 59 1008.4
20260505023016 12 0.0 0.0 0.00 0.00 0.00 58 1008.2
20260505022017 12 0.0 0.0 0.00 0.00 0.00 58 1008.6
20260505021016 12 0.0 1.6 0.00 0.00 0.00 57 1007.8
20260505020017 12 0.0 0.0 0.00 0.00 0.00 56 1007.7
20260505015017 13 0.0 1.6 0.00 0.00 0.00 55 1008.2
20260505014016 13 0.0 1.6 0.00 0.00 0.00 55 1007.2
20260505013017 13 0.0 3.2 0.00 0.00 0.00 54 1007.2
20260505012017 13 315 1.6 4.8 0.00 0.00 0.00 54 1007.4
20260505011017 13 338 1.6 6.4 0.00 0.00 0.00 54 1007.3
20260505010057 13 315 4.8 9.7 0.00 0.00 0.00 54 1007.1
20260505005036 14 315 6.4 14.5 0.00 0.00 0.00 54 1007.4
20260505004016 15 293 9.7 17.7 0.00 0.00 0.00 49 1007.4
20260505003036 15 270 8.0 19.3 0.00 0.00 0.00 45 1007.6
20260505002016 15 270 8.0 24.1 0.00 0.00 0.00 41 1007.3
20260505001016 16 248 4.8 12.9 0.00 0.00 0.00 40 1007.0
20260505000017 16 23 4.8 14.5 0.00 0.00 0.00 40 1006.5
20260504235037 16 0 8.0 20.9 0.00 0.00 0.00 39 1006.0
20260504234017 16 315 8.0 22.5 0.00 0.00 0.00 37 1005.7
20260504233037 17 23 12.9 22.5 0.00 0.00 0.00 37 1006.1
20260504232016 17 338 11.3 22.5 0.00 0.00 0.00 35 1005.9
20260504231016 17 315 9.7 20.9 0.00 0.00 0.00 34 1005.8
20260504230016 17 338 11.3 27.4 0.00 0.00 0.00 34 1005.3
20260504225037 17 315 12.9 32.2 0.00 0.00 0.00 30 1005.1
20260504224016 18 0 16.1 33.8 0.00 0.00 0.00 30 1005.6
20260504223036 18 315 14.5 30.6 0.00 0.00 0.00 30 1006.0
20260504222016 20 338 8.0 19.3 0.00 0.00 0.00 28 1006.3
20260504221017 20 23 16.1 33.8 0.00 0.00 0.00 26 1006.5
20260504220017 21 23 4.8 11.3 0.00 0.00 0.00 22 1006.1
20260504215016 21 23 8.0 19.3 0.00 0.00 0.00 22 1006.3
20260504214016 22 0 8.0 20.9 0.00 0.00 0.00 21 1006.7
20260504213016 22 23 4.8 14.5 0.00 0.00 0.00 22 1006.7
20260504212017 22 23 6.4 19.3 0.00 0.00 0.00 22 1006.8
20260504211036 22 338 9.7 17.7 0.00 0.00 0.00 23 1007.3
20260504210017 22 315 11.3 19.3 0.00 0.00 0.00 23 1007.5
20260504205017 23 315 12.9 20.9 0.00 0.00 0.00 23 1008.0
20260504204016 23 315 14.5 29.0 0.00 0.00 0.00 22 1008.6
20260504203017 23 315 12.9 22.5 0.00 0.00 0.00 21 1008.6
20260504202016 23 45 8.0 24.1 0.00 0.00 0.00 22 1008.8
20260504201017 23 0 9.7 22.5 0.00 0.00 0.00 22 1009.1
20260504200016 24 315 14.5 30.6 0.00 0.00 0.00 22 1009.3
20260504195016 24 23 11.3 25.7 0.00 0.00 0.00 22 1009.6
20260504194037 23 0 16.1 30.6 0.00 0.00 0.00 22 1009.9
20260504193017 23 0 6.4 19.3 0.00 0.00 0.00 21 1009.9
20260504192017 22 23 4.8 12.9 0.00 0.00 0.00 24 1009.2
20260504191016 20 338 9.7 19.3 0.00 0.00 0.00 27 1009.0
20260504190016 18 315 9.7 19.3 0.00 0.00 0.00 29 1008.3
20260504185016 18 315 8.0 17.7 0.00 0.00 0.00 30 1008.4
20260504184018 18 293 11.3 30.6 0.00 0.00 0.00 28 1009.0
20260504183017 19 315 12.9 30.6 0.00 0.00 0.00 25 1009.2
20260504182017 20 270 4.8 12.9 0.00 0.00 0.00 21 1009.1
20260504181017 20 180 11.3 24.1 0.00 0.00 0.00 21 1009.6
20260504180017 21 203 8.0 19.3 0.00 0.00 0.00 20 1009.8
20260504175017 22 315 1.6 6.4 0.00 0.00 0.00 19 1009.9
20260504174036 22 0 6.4 12.9 0.00 0.00 0.00 19 1010.2
20260504173017 23 23 4.8 9.7 0.00 0.00 0.00 19 1010.7
20260504172016 24 315 6.4 11.3 0.00 0.00 0.00 18 1011.2
20260504171017 23 135 3.2 16.1 0.00 0.00 0.00 19 1011.1
20260504151016 15 180 3.2 6.4 0.00 0.00 0.00 34 1010.9
20260504141016 8 0.0 1.6 0.00 0.00 0.00 59 1009.9